M.P.E.C. 2023-O01 Issued 2023 July 16, 00:04 UT The Minor Planet Electronic Circulars contain information on unusual minor planets, routine data on comets and natural satellites, and occasional editorial announcements. They are published on behalf of Division F of the International Astronomical Union by the Minor Planet Center, Smithsonian Astrophysical Observatory, Cambridge, MA 02138, U.S.A. Prepared using the Tamkin Foundation Computer Network MPC@CFA.HARVARD.EDU URL https://www.minorplanetcenter.net/ ISSN 1523-6714 2023 NT1 Observations: K23N01T* C2023 07 15.14183821 02 37.687-00 38 29.22 16.25cVEO001M22 K23N01T C2023 07 15.14886321 02 37.265-00 37 39.22 16.71cVEO001M22 K23N01T C2023 07 15.15225321 02 37.104-00 37 15.13 16.14cVEO001M22 K23N01T C2023 07 15.17360921 02 36.382-00 34 45.08 16.33cVEO001M22 K23N01T mC2023 07 15.31139821 03 43.412-00 33 10.76 16.54GVEO001I52 K23N01T mC2023 07 15.31356221 03 43.049-00 32 57.05 16.68GVEO001I52 K23N01T mC2023 07 15.31570321 03 42.692-00 32 43.55 16.29GVEO001I52 K23N01T mC2023 07 15.31782121 03 42.340-00 32 30.19 15.77GVEO001I52 K23N01T KC2023 07 15.55425621 04 12.69 -00 10 49.5 16.7 GVEO001900 K23N01T KC2023 07 15.56134221 04 11.97 -00 10 14.3 16.8 GVEO001900 K23N01T KC2023 07 15.56842821 04 11.22 -00 09 39.3 16.7 GVEO001900 K23N01T 1C2023 07 15.82573 21 04 22.20 +00 07 52.2 17.0 GVEO001C40 K23N01T 1C2023 07 15.82742 21 04 22.06 +00 07 58.8 17.1 GVEO001C40 K23N01T 1C2023 07 15.82839 21 04 21.99 +00 08 02.7 17.1 GVEO001C40 K23N01T 1C2023 07 15.83097 21 04 21.79 +00 08 12.8 17.1 GVEO001C40 K23N01T 1C2023 07 15.83350 21 04 21.59 +00 08 22.8 17.3 GVEO001C40 K23N01T 1C2023 07 15.83953 21 04 21.10 +00 08 46.4 17.0 GVEO001C40 K23N01T KC2023 07 15.84557 21 04 28.98 +00 09 15.6 19.5 BZEO001M17 K23N01T 1C2023 07 15.85211 21 04 19.98 +00 09 35.2 17.0 GVEO001C40 K23N01T 1C2023 07 15.85818 21 04 19.41 +00 09 58.5 16.9 GVEO001C40 K23N01T KC2023 07 15.85850 21 04 28.57 +00 10 04.6 19.2 BZEO001M17 K23N01T 1C2023 07 15.86420 21 04 18.84 +00 10 21.6 17.0 GVEO001C40 K23N01T KC2023 07 15.86873121 04 21.69 +00 10 13.0 16.8 GXEO001L18 K23N01T C2023 07 15.86916 21 04 23.10 +00 10 18.1 16.4 R EO001M32 K23N01T KC2023 07 15.87009221 04 21.60 +00 10 18.0 16.8 GXEO001L18 K23N01T C2023 07 15.87010 21 04 23.00 +00 10 20.8 16.7 R EO001M32 K23N01T C2023 07 15.87057 21 04 22.95 +00 10 21.7 16.8 R EO001M32 K23N01T KC2023 07 15.87083 21 04 28.04 +00 10 53.0 17.9 BZEO001M17 K23N01T C2023 07 15.87105 21 04 22.93 +00 10 23.5 17.4 R EO001M32 K23N01T KC2023 07 15.87145421 04 21.53 +00 10 23.1 16.8 GXEO001L18 K23N01T C2023 07 15.87152 21 04 22.92 +00 10 26.1 16.9 R EO001M32 K23N01T C2023 07 15.87200 21 04 22.86 +00 10 27.2 17.3 R EO001M32 K23N01T C2023 07 15.87247 21 04 22.85 +00 10 30.6 17.5 R EO001M32 K23N01T KC2023 07 15.87281421 04 21.42 +00 10 27.8 17.0 GXEO001L18 K23N01T C2023 07 15.87293 21 04 22.81 +00 10 31.8 17.1 R EO001M32 K23N01T C2023 07 15.87341 21 04 22.76 +00 10 34.7 17.3 R EO001M32 K23N01T KC2023 07 15.87417521 04 21.29 +00 10 33.7 16.8 GXEO001L18 K23N01T C2023 07 15.87436 21 04 22.70 +00 10 36.2 16.9 R EO001M32 K23N01T C2023 07 15.87483 21 04 22.65 +00 10 37.5 17.0 R EO001M32 K23N01T C2023 07 15.87577 21 04 22.61 +00 10 43.2 17.0 R EO001M32 K23N01T C2023 07 15.87624 21 04 22.59 +00 10 44.1 17.3 R EO001M32 K23N01T C2023 07 15.87672 21 04 22.56 +00 10 45.0 17.0 R EO001M32 K23N01T C2023 07 15.87719 21 04 22.56 +00 10 47.6 16.9 R EO001M32 K23N01T KC2023 07 15.87763521 04 27.90 +00 11 29.9 16.3 RVEO001M50 K23N01T C2023 07 15.87767 21 04 22.43 +00 10 48.9 17.2 R EO001M32 K23N01T C2023 07 15.87814 21 04 22.37 +00 10 52.1 17.0 R EO001M32 K23N01T C2023 07 15.87861 21 04 22.35 +00 10 53.8 16.8 R EO001M32 K23N01T KC2023 07 15.87878521 04 27.84 +00 11 34.3 16.4 RVEO001M50 K23N01T C2023 07 15.87908 21 04 22.31 +00 10 55.6 16.8 R EO001M32 K23N01T KC2023 07 15.88437021 04 27.12 +00 11 46.1 17.1 GVEO001G17 K23N01T KC2023 07 15.88796121 04 26.92 +00 11 59.6 16.9 GVEO001G17 K23N01T KB2023 07 15.89011 21 04 25.12 +00 11 52.6 16.8 RZEO001106 K23N01T KC2023 07 15.89155121 04 26.67 +00 12 13.1 17.0 GVEO001G17 K23N01T KB2023 07 15.89259 21 04 24.94 +00 12 01.8 16.8 RZEO001106 K23N01T C2023 07 15.89488721 04 25.09 +00 12 15.0 16.6 GVEO001L01 K23N01T KB2023 07 15.89508 21 04 24.75 +00 12 11.1 16.7 RZEO001106 K23N01T C2023 07 15.89699521 04 24.94 +00 12 22.9 16.6 GVEO001L01 K23N01T KB2023 07 15.89756 21 04 24.59 +00 12 20.4 16.8 RZEO001106 K23N01T C2023 07 15.89951921 04 24.74 +00 12 32.3 16.4 GVEO001L01 K23N01T C2023 07 15.90035921 04 24.68 +00 12 35.3 16.7 GVEO001L01 K23N01T 1C2023 07 15.90104721 04 23.300+00 12 13.90 VEO001246 K23N01T 1C2023 07 15.90121621 04 23.290+00 12 14.70 VEO001246 K23N01T 1C2023 07 15.90138521 04 23.280+00 12 15.10 VEO001246 K23N01T 1C2023 07 15.90172221 04 23.230+00 12 16.20 VEO001246 K23N01T 1C2023 07 15.90189021 04 23.220+00 12 16.90 VEO001246 K23N01T 1C2023 07 15.90205921 04 23.210+00 12 17.70 VEO001246 K23N01T KC2023 07 15.90318 21 04 26.12 +00 12 53.7 17.7 GXEO001K78 K23N01T KC2023 07 15.90519 21 04 25.97 +00 13 01.2 17.4 GXEO001K78 K23N01T KC2023 07 15.90721 21 04 25.82 +00 13 08.6 17.3 GXEO001K78 K23N01T KC2023 07 15.91437 21 04 25.32 +00 13 30.4 17.0 GXEO001G15 K23N01T KC2023 07 15.91641121 04 23.38 +00 13 34.7 16.9 GVEO001L01 K23N01T KC2023 07 15.91767221 04 23.27 +00 13 39.4 17.0 GVEO001L01 K23N01T KC2023 07 15.91865 21 04 24.97 +00 13 46.2 16.9 GXEO001G15 K23N01T KC2023 07 15.91893221 04 23.15 +00 13 43.9 16.8 GVEO001L01 K23N01T KC2023 07 15.92019221 04 23.03 +00 13 48.5 16.7 GVEO001L01 K23N01T KC2023 07 15.92118721 04 15.38 +00 13 18.3 17.6 GXEO001L99 K23N01T KC2023 07 15.92145221 04 22.92 +00 13 53.1 16.7 GVEO001L01 K23N01T KC2023 07 15.92293 21 04 24.62 +00 14 02.0 17.1 GXEO001G15 K23N01T KC2023 07 15.92639421 04 14.85 +00 13 37.5 17.4 GXEO001L99 K23N01T KC2023 07 15.93160021 04 14.41 +00 13 55.2 17.3 GXEO001L99 K23N01T KC2023 07 15.93733 21 04 22.87 +00 15 01.1 17.8 GXEO001M26 K23N01T KC2023 07 15.94232 21 04 22.35 +00 15 18.5 17.4 GXEO001M26 K23N01T KC2023 07 15.94706 21 04 21.86 +00 15 36.1 17.5 GXEO001M26 K23N01T KB2023 07 15.95065121 04 08.84 +00 15 27.5 16.9 GXEO001L76 K23N01T KB2023 07 15.95206221 04 08.68 +00 15 32.6 17.2 GXEO001L76 K23N01T KB2023 07 15.95347021 04 08.53 +00 15 37.6 17.2 GXEO001L76 K23N01T KB2023 07 15.95487721 04 08.37 +00 15 42.5 17.2 GXEO001L76 K23N01T KB2023 07 15.95628521 04 08.22 +00 15 47.8 17.1 GXEO001L76 K23N01T KC2023 07 15.95692421 04 19.42 +00 15 56.2 17.2 GXEO001595 K23N01T KB2023 07 15.95769321 04 08.04 +00 15 52.7 17.3 GXEO001L76 K23N01T KC2023 07 15.95854221 04 19.25 +00 16 02.0 17.2 GXEO001595 K23N01T KB2023 07 15.95910121 04 07.93 +00 15 57.6 17.3 GXEO001L76 K23N01T KC2023 07 15.96016221 04 19.08 +00 16 07.8 16.9 GXEO001595 K23N01T KB2023 07 15.96051021 04 07.76 +00 16 02.7 17.1 GXEO001L76 K23N01T KC2023 07 15.96088 21 04 21.775+00 16 20.71 17.3 VqEO001C77 K23N01T KB2023 07 15.96192021 04 07.61 +00 16 07.8 17.1 GXEO001L76 K23N01T KC2023 07 15.96624 21 04 21.199+00 16 40.04 17.4 VqEO001C77 K23N01T KC2023 07 15.97088 21 04 18.77 +00 17 01.8 16.9 GVEO001L47 K23N01T C2023 07 15.97216 21 04 15.94 +00 28 10.3 16.9 GVEO001M28 K23N01T KC2023 07 15.97348 21 04 20.458+00 17 04.92 17.7 VqEO001C77 K23N01T C2023 07 15.97378 21 04 15.71 +00 28 15.4 17.0 GVEO001M28 K23N01T KC2023 07 15.97517 21 04 18.24 +00 17 15.6 16.7 GVEO001L47 K23N01T C2023 07 15.97557 21 04 15.44 +00 28 21.3 17.4 GVEO001M28 K23N01T C2023 07 15.97716 21 04 15.20 +00 28 26.5 17.1 GVEO001M28 K23N01T C2023 07 15.97911 21 04 14.92 +00 28 32.6 17.2 GVEO001M28 Observer details: 106 Crni Vrh. Observer J. Skvarc. 0.60-m f/3.3 reflector + CMO. 246 Klet Observatory-KLENOT. Observers M. Tichy, J. Ticha, M. Janda, M. Honkova. Measurer M. Tichy. 1.06-m f/2.7 Reflector + 2048x2048 CCD. 595 Farra d'Isonzo. Observer E. Pettarin. 0.61-m f/4.5 reflector + CCD. 900 Moriyama. Observer Y. Ikari. 0.26-m f/7.0 reflector + CCD. C40 Kuban State University Astrophysical Observatory. Observers A. Ivanov, A. Barcov, V. Ivanov, V. Lysenko, N. Yakovenko, N. Ivanova, N. Gorbunov, G. Kurbatov, P. Shchukin, V. Roshchupko. Measurer A. Ivanov. 0.51-m f/8 reflector + CCD. C77 Bernezzo Observatory. Observer A. Mantero. 0.25-m f/4.0 reflector + CCD. G15 Magroforte Observatory, Alessandria. Observer A. De Pieri. 0.23-m f/6.7 SC + CCD. G17 BAS Observatory, Scandicci. Observer L. Grazzini. 0.20-m f/10 Schmidt- Cassegrain + CCD + f/6.3 focal reducer. I52 Steward Observatory, Mt. Lemmon Station. Observer J. K. Hogan. Measurers E. J. Christensen, D. Fay, J. B. Fazekas, D. C. Fuls, A. R. Gibbs, A. D. Grauer, H. Groeller, J. K. Hogan, R. A. Kowalski, S. M. Larson, G. J. Leonard, D. Rankin, R. L. Seaman, A. Serrano, F. C. Shelly, K. W. Wierzchos. 1.0-m prime focus + CCD. K78 iota Scorpii Observatory, La Spezia. Observers G. Scarfi, P. Boongerd. 0.40-m f/6.1 reflector + CCD. L01 Visnjan Observatory, Tican. Observer K. Korlevic. 1.0-m f/2.9 reflector + CCD. L18 QOS Observatory, Zalistsi. Observer T. O. Dementiev. Measurer A. M. Kozhukhov. 0.50-m f/3.8 reflector + CCD. L47 Osservatorio Astronomico, Piobbico. Observers A. Teseo, A. Annamelia. Measurer A. Teseo. 0.20-m f/6.3 Schmidt-Cassegrain + CCD. L76 Nomad Observatory, Kochevanchik. Observer E. Romas. 0.25-m f/4 newtonian + CMO. L99 Novosilky. Observer A. M. Kozhukhov. 0.30-m f/1.0 astrograf + CCD. M17 SN1572 Tycho Observatory, La Spezia. Observer L. Marini. Measurer L. Bertagna. 0.20-m f/4 reflector + CCD. M22 ATLAS South Africa, Sutherland. Observers L. Denneau, R. Siverd, J. Tonry, H. Weiland. Measurers L. Denneau, N. Erasmus, A. Fitzsimmons, A. Lawrence, J. Robinson, R. Siverd, J. Tonry, H. Weiland. 0.5-m Reflector + CCD. M26 Zen Observatory, Scandicci. Observers M. Lombardo, K. Lombardo. Measurers M. Lombardo, L. Cavina. 0.30-m f/7.4 Ritchey-Chretien + CCD. M28 Lesedi Telescope-SAAO Observatory, Sutherland. Observers N. Erasmus, S. Potter, C. van Gend, S. Chandra. Measurers N. Erasmus, T. Ngwane. 1.0-m f/8 Reflector + CCD. M32 Sunny Transcarpathian, Mukachevo. Observer S. Zolotov. Measurers S. Zolotov, O. Briukhovetskyi. 0.35-m f/2.0 astrograf + CCD. M50 Virtual Telescope Project, Manciano. Observer G. Masi. 0.36-m f/7.2 Schmidt-Cassegrain + CCD. Orbital elements: 2023 NT1 Earth MOID = 0.0005 AU Epoch 2023 Feb. 25.0 TT = JDT 2460000.5 Veres M 319.45227 (2000.0) P Q n 0.39552342 Peri. 313.34994 -0.43309690 +0.89788703 a 1.8380384 Node 290.83147 -0.80062991 -0.42343659 e 0.5040705 Incl. 4.84287 -0.41402757 -0.12041733 P 2.49 H 25.01 G 0.15 U 7 Residuals in seconds of arc 230715 M22 0.1- 0.6+ 230715 M32 0.2- 1.3+ 230715 L01 0.2- 0.2+ 230715 M22 0.2- 0.2+ 230715 L18 0.0 0.3+ 230715 L01 0.2- 0.3+ 230715 M22 0.1+ 0.1+ 230715 M32 0.1- 0.9- 230715 G15 0.1+ 0.1+ 230715 M22 0.1- 0.1+ 230715 M32 0.3- 1.4- 230715 L01 0.3- 0.1+ 230715 I52 0.1+ 0.0 230715 M32 0.0 0.8+ 230715 L01 0.4- 0.1+ 230715 I52 0.0 0.0 230715 M32 0.2+ 0.1- 230715 L99 0.2+ 0.5+ 230715 I52 0.0 0.1- 230715 M32 0.3+ 1.0- 230715 L01 0.4- 0.2+ 230715 I52 0.1- 0.1- 230715 M32 0.8+ 0.2- 230715 G15 0.2+ 0.3+ 230715 900 0.2+ 0.1- 230715 M50 0.0 0.1- 230715 L99 0.3- 0.7+ 230715 900 0.0 0.1- 230715 M32 0.7- 0.7- 230715 L99 0.6+ 0.5- 230715 900 0.0 0.1- 230715 M32 1.1- 0.7+ 230715 M26 0.5+ 0.2+ 230715 C40 0.2+ 0.1+ 230715 M32 0.9- 0.6+ 230715 M26 0.1+ 0.4- 230715 C40 0.0 0.0 230715 M50 0.1+ 0.1- 230715 M26 0.0 0.3+ 230715 C40 0.1+ 0.1+ 230715 M32 1.0- 0.6+ 230715 L76 0.2- 0.1- 230715 C40 0.0 0.0 230715 G17 0.1- 0.1- 230715 L76 0.2- 0.0 230715 C40 0.0 0.1+ 230715 G17 0.3+ 0.1- 230715 L76 0.1- 0.0 230715 C40 0.1+ 0.1+ 230715 106 0.0 0.0 230715 L76 0.2- 0.1- 230715 M17 0.2+ 0.2+ 230715 G17 0.2+ 0.1- 230715 L76 0.0 0.2+ 230715 C40 0.1- 0.0 230715 106 0.2- 0.0 230715 595 0.1- 0.2- 230715 C40 0.1- 0.1- 230715 L01 0.3- 0.1+ 230715 L76 0.4- 0.1+ 230715 M17 0.4- 0.8- 230715 106 0.4- 0.0 230715 595 0.1- 0.2- 230715 C40 0.1+ 0.1- 230715 L01 0.2- 0.1+ 230715 L76 0.3+ 0.0 230715 L18 0.0 0.4+ 230715 106 0.1- 0.0 230715 595 0.1- 0.1- 230715 M32 0.7+ 0.8+ 230715 L01 0.4- 0.1+ 230715 L76 0.1+ 0.1+ 230715 L18 0.1+ 0.2+ 230715 L01 0.4- 0.0 230715 C77 0.0 0.1+ 230715 M32 0.1+ 0.1- 230715 246 0.2+ 0.1- 230715 L76 0.2+ 0.2+ 230715 M32 0.2- 0.9- 230715 246 0.3+ 0.1+ 230715 C77 0.3- 0.5+ 230715 M17 0.8- 0.6+ 230715 246 0.3+ 0.1- 230715 L47 0.5+ 0.4+ 230715 M32 0.0 1.0- 230715 246 0.1- 0.3- 230715 M28 0.5+ 1.3- 230715 L18 0.6+ 0.1+ 230715 246 0.1- 0.2- 230715 C77 0.1+ 0.0 230715 M32 0.3+ 0.1- 230715 246 0.1- 0.0 230715 M28 0.6+ 1.5- 230715 M32 0.1- 0.9- 230715 K78 0.1- 0.0 230715 L47 0.1- 0.8- 230715 M32 0.2+ 0.7+ 230715 K78 0.1- 0.0 230715 M28 0.5+ 1.3- 230715 L18 0.4+ 0.4- 230715 K78 0.1- 0.0 230715 M28 0.4+ 1.3- 230715 M32 0.1+ 0.2+ 230715 G15 0.3+ 0.0 230715 M28 0.6+ 1.5- Ephemeris: 2023 NT1 a,e,i = 1.84, 0.50, 5 q = 0.9115 Date TT R. A. (2000) Decl. Delta r Elong. Phase V 2023 06 16 08 52 54.1 +02 24 16 0.1769 0.9180 52.2 119.1 25.8 ... 2023 07 01 09 02 00.1 +00 40 23 0.07903 0.9590 41.6 135.2 25.7 ... 2023 07 09 09 04 23.3 -00 34 48 0.02801 0.9942 36.1 143.0 24.5 ... 2023 07 15 21 02 55.4 -01 04 47 0.01001 1.0252 150.3 29.4 16.3 2023 07 16 21 04 10.7 +00 24 47 0.01632 1.0306 149.8 29.7 17.4 2023 07 17 21 04 41.0 +01 03 36 0.02264 1.0361 150.0 29.4 18.1 ... 2023 07 23 21 04 56.6 +01 54 58 0.06083 1.0709 153.7 24.9 20.2 ... 2023 07 31 21 04 03.4 +01 40 35 0.1132 1.1215 158.9 19.0 21.5 ... 2023 08 15 21 02 50.5 +00 21 19 0.2202 1.2254 163.2 13.8 23.0 (Last issue was M.P.E.C. 2023-N79) M. P. C. Staff (C) Copyright 2023 MPC M.P.E.C. 2023-O01
